User: anonymous   Login
Location: Unspecified
(0.0000°N, 0.0000°E)
Time: 05:59:02
(UTC+00:00)
Language:

GSAT 7 - Orbit

View from above orbital plane
View from above orbital plane
View from above satellite
View from above satellite

Ground track
Ground track

The orbit data is extracted from the following two-line orbital elements,

1 39234U 13044B   15147.07018159 -.00000082  00000-0  00000+0 0  9992
2 39234 000.0526 103.7095 0007618 179.6717 060.1849 01.00272983  6399
Epoch (UTC): 27 May 2015 01:41:03
Eccentricity: 0.0007618
inclination: 0.0526°
perigee height: 35754 km
apogee height: 35818 km
right ascension of ascending node: 103.7095°
argument of perigee: 179.6717°
revolutions per day: 1.00272983
mean anomaly at epoch: 60.1849°
orbit number at epoch: 639

The dashed part of the orbit path shows where the satellite is in the earth's shadow,  

DLR